Hourly Data Report for February 28, 2019

TORONTO INTL A
ONTARIO
Current Station Operator: NAVCAN

43°40'36.000" N
79°37'50.000" W
173.40 m
6158731
71624
YYZ

Download Data

Hourly Data (February 2019)
Hourly Data Report for February 28, 2019
TIME
LST
Temp Definition
°C
Dew Point Definition
°C
Rel Hum Definition
%
Precip. Amount Definition
mm

Wind Dir Definition
10's deg

Wind Spd Definition
km/h
Visibility Definition
km
Stn Press Definition
kPa
Hmdx Definition


Wind Chill Definition


Weather Definition


00:00 -12.9 -16.6 75   34 21 4.8 99.90   -22 Snow
01:00 -13.6 -17.2 74   35 18 24.1 99.93   -22 Blowing Snow
02:00 -14.6 -18.3 74   33 12 24.1 99.99   -21 LegendNANA
03:00 -14.5 -18.0 75   34 18 24.1 100.07   -23 LegendNANA
04:00 -15.3 -18.7 76   36 13 24.1 100.13   -23 Clear
05:00 -15.9 -19.1 77   35 13 24.1 100.25   -23 LegendNANA
06:00 -15.9 -19.2 77   34 15 24.1 100.33   -24 LegendNANA
07:00 -15.9 -18.9 78   35 15 24.1 100.36   -24 Clear
08:00 -15.5 -18.6 77   1 10 24.1 100.45   -22 LegendNANA
09:00 -14.2 -17.5 77   2 13 24.1 100.48   -21 LegendNANA
10:00 -12.2 -15.7 75   1 10 24.1 100.48   -18 Clear
11:00 -10.2 -14.4 72   36 3 24.1 100.46   -12 LegendNANA
12:00 -7.9 -12.7 69   25 4 24.1 100.48   -10 LegendNANA
13:00 -7.6 -13.0 66   20 10 24.1 100.43   -12 Mainly Clear
14:00 -7.4 -13.3 63   18 7 24.1 100.40   -11 LegendNANA
15:00 -7.2 -13.2 63   19 11 24.1 100.38   -12 LegendNANA
16:00 -7.4 -13.1 64   15 10 24.1 100.39   -12 Mostly Cloudy
17:00 -7.5 -12.9 65   13 13 24.1 100.35   -13 LegendNANA
18:00 -7.5 -12.9 66   16 9 24.1 100.39   -12 LegendNANA
19:00 -7.7 -12.9 67   15 7 24.1 100.39   -11 Mostly Cloudy
20:00 -7.7 -12.6 68   13 5 24.1 100.38   -10 LegendNANA
21:00 -7.4 -12.4 68   15 5 24.1 100.37   -10 LegendNANA
22:00 -7.3 -12.3 68   14 4 24.1 100.34   -9 Mostly Cloudy
23:00 -7.4 -12.3 68   36 1 24.1 100.28   -8 LegendNANA

Notes on Data Quality.

Legend

  • E = Estimated
  • M = Missing
  • NA = Not Available*
  • [empty] = Indicates an unobserved value
Date modified: